| time (UTC) | temp C | wind direction | speed KPH | gust KPH | rain 1hr cm | rain 24hr cm | rain mn cm | humidity % | barometer mb |
| 20260505031559 | 10 | 233 | 11.3 | 19.3 | 0.00 | 0.64 | 0.00 | 74 | 1006.5 |
| 20260505030100 | 10 | 233 | 11.3 | 20.9 | 0.00 | 0.64 | 0.00 | 74 | 1006.2 |
| 20260505024557 | 10 | 231 | 9.7 | 22.5 | 0.00 | 0.64 | 0.64 | 74 | 1006.0 |
| 20260505023059 | 10 | 206 | 9.7 | 19.3 | 0.00 | 0.64 | 0.64 | 73 | 1005.9 |
| 20260505021555 | 10 | 217 | 8.0 | 19.3 | 0.00 | 0.64 | 0.64 | 72 | 1005.7 |
| 20260505014556 | 10 | 235 | 9.7 | 17.7 | 0.00 | 0.64 | 0.64 | 71 | 1005.4 |
| 20260505013105 | 10 | 231 | 9.7 | 20.9 | 0.00 | 0.64 | 0.64 | 69 | 1005.3 |
| 20260505011600 | 10 | 196 | 8.0 | 22.5 | 0.00 | 0.64 | 0.64 | 68 | 1005.2 |
| 20260505010111 | 11 | 202 | 8.0 | 22.5 | 0.00 | 0.64 | 0.64 | 66 | 1005.2 |
| 20260505004558 | 11 | 243 | 11.3 | 22.5 | 0.00 | 0.64 | 0.64 | 66 | 1005.1 |
| 20260505003058 | 11 | 205 | 11.3 | 30.6 | 0.00 | 0.64 | 0.64 | 66 | 1005.1 |
| 20260505001603 | 11 | 219 | 16.1 | 24.1 | 0.00 | 0.64 | 0.64 | 66 | 1004.8 |
| 20260504234555 | 12 | 239 | 12.9 | 32.2 | 0.00 | 0.66 | 0.64 | 59 | 1004.4 |
| 20260504233107 | 12 | 205 | 17.7 | 38.6 | 0.00 | 0.66 | 0.64 | 56 | 1004.2 |
| 20260504231604 | 12 | 239 | 11.3 | 20.9 | 0.00 | 0.66 | 0.64 | 48 | 1004.3 |
| 20260504230058 | 12 | 212 | 11.3 | 38.6 | 0.00 | 0.66 | 0.64 | 43 | 1003.9 |
| 20260504224558 | 13 | 250 | 19.3 | 33.8 | 0.00 | 0.76 | 0.64 | 42 | 1003.6 |
| 20260504223056 | 13 | 257 | 11.3 | 32.2 | 0.00 | 0.76 | 0.64 | 42 | 1003.4 |
| 20260504221555 | 13 | 241 | 11.3 | 22.5 | 0.00 | 0.76 | 0.64 | 41 | 1003.1 |
| 20260504220056 | 13 | 271 | 14.5 | 35.4 | 0.00 | 0.76 | 0.64 | 39 | 1003.1 |
| 20260504214602 | 14 | 268 | 19.3 | 45.1 | 0.00 | 0.94 | 0.64 | 39 | 1003.1 |
| 20260504213058 | 13 | 213 | 27.4 | 49.9 | 0.00 | 0.94 | 0.64 | 40 | 1003.2 |
| 20260504211559 | 14 | 283 | 17.7 | 45.1 | 0.00 | 0.94 | 0.64 | 40 | 1003.0 |
| 20260504210108 | 13 | 261 | 22.5 | 48.3 | 0.00 | 0.94 | 0.64 | 40 | 1002.8 |
| 20260504204602 | 13 | 249 | 20.9 | 41.8 | 0.00 | 1.19 | 0.64 | 43 | 1002.5 |
| 20260504203108 | 13 | 244 | 24.1 | 53.1 | 0.00 | 1.19 | 0.64 | 41 | 1002.3 |
| 20260504201603 | 13 | 249 | 19.3 | 48.3 | 0.00 | 1.19 | 0.64 | 42 | 1002.1 |
| 20260504200103 | 13 | 246 | 27.4 | 43.5 | 0.00 | 1.19 | 0.64 | 45 | 1001.9 |
| 20260504194608 | 13 | 260 | 24.1 | 45.1 | 0.00 | 1.40 | 0.64 | 45 | 1001.8 |
| 20260504193102 | 12 | 235 | 24.1 | 51.5 | 0.00 | 1.40 | 0.64 | 49 | 1001.7 |
| 20260504191558 | 12 | 227 | 27.4 | 49.9 | 0.00 | 1.40 | 0.64 | 53 | 1001.5 |
| 20260504190128 | 12 | 287 | 25.7 | 54.7 | 0.00 | 1.40 | 0.64 | 54 | 1001.6 |
| 20260504184559 | 12 | 250 | 27.4 | 48.3 | 0.00 | 1.40 | 0.64 | 57 | 1001.4 |
| 20260504183056 | 12 | 288 | 25.7 | 41.8 | 0.00 | 1.40 | 0.64 | 58 | 1001.0 |
| 20260504181605 | 12 | 243 | 22.5 | 45.1 | 0.00 | 1.40 | 0.64 | 60 | 1000.9 |
| 20260504180057 | 12 | 254 | 19.3 | 43.5 | 0.00 | 1.40 | 0.64 | 61 | 1000.8 |
| 20260504174601 | 12 | 257 | 24.1 | 45.1 | 0.00 | 1.40 | 0.64 | 62 | 1000.7 |
| 20260504173101 | 11 | 226 | 20.9 | 46.7 | 0.00 | 1.40 | 0.64 | 68 | 1000.6 |
| 20260504171556 | 11 | 249 | 25.7 | 43.5 | 0.00 | 1.40 | 0.64 | 66 | 1000.5 |
| 20260504081601 | 2 | 273 | 37.0 | 78.9 | 0.00 | 1.22 | 0.43 | 93 | 985.5 |
| 20260504060120 | 3 | 250 | 25.7 | 46.7 | 0.05 | 1.12 | 0.36 | 96 | 979.6 |
| 20260504050117 | 4 | 259 | 14.5 | 29.0 | 0.08 | 1.07 | 0.28 | 97 | 977.5 |
| 20260504044600 | 4 | 281 | 11.3 | 22.5 | 0.08 | 1.04 | 0.28 | 97 | 977.3 |
| 20260504043111 | 3 | 253 | 16.1 | 27.4 | 0.08 | 1.02 | 0.25 | 97 | 977.2 |
| 20260504041557 | 3 | 252 | 16.1 | 25.7 | 0.13 | 1.02 | 0.23 | 97 | 976.7 |
| 20260504040108 | 3 | 283 | 16.1 | 24.1 | 0.18 | 0.97 | 0.18 | 97 | 976.1 |
| 20260504034559 | 3 | 290 | 11.3 | 20.9 | 0.18 | 0.94 | 0.18 | 96 | 975.5 |
| 20260504033105 | 3 | 289 | 8.0 | 16.1 | 0.18 | 0.94 | 0.15 | 96 | 975.2 |